Weather History for Whiteville, NC

Change the Weather History Date:

Saturday, February 9, 2013

  Actual Average (KLBT) Record (KLBT)
Temperature  
Mean Temperature 44 °F 46 °F  
Max Temperature 56 °F 57 °F 71 °F (2001)
Min Temperature 32 °F 35 °F 25 °F (2006)
Degree Days  
Heating Degree Days 21 19  
Month to date heating degree days 181  
Since 1 July heating degree days 1900  
Cooling Degree Days 0 0  
Month to date cooling degree days 0  
Year to date cooling degree days 1  
Moisture  
Dew Point 26 °F    
Average Humidity 53    
Maximum Humidity 93    
Minimum Humidity 24    
Precipitation  
Precipitation 0.00 in 0.10 in 0.06 in (2005)
Month to date precipitation 0.80  
Year to date precipitation 3.77  
Sea Level Pressure  
Sea Level Pressure 30.23 in    
Wind  
Wind Speed 2 mph (NW)    
Max Wind Speed 9 mph    
Max Gust Speed -    
Visibility 10 miles    
Events      
T = Trace of Precipitation, MM = Missing Value Source: NWS Daily Summary

Daily Weather History Graph

Daily Weather History Graph

Search for Another Location

Airport:

Trip Planner

Search our weather history database for the weather conditions in past years. The results will help you decide how hot, cold, wet, or windy it might be!

Date:

Astronomy

Feb. 09, 2013 Rise Set
Actual Time 7:05 AM EST 5:53 PM EST
Civil Twilight 6:39 AM EST 6:18 PM EST
Nautical Twilight 6:09 AM EST 6:48 PM EST
Astronomical Twilight 5:40 AM EST 7:17 PM EST
Moon 6:16 AM EST (2/9) 5:32 PM EST (2/9)
Length of Visible Light 11h 39m
Length of Day
10h 47m
Waning Crescent, 0% of the Moon is Illuminated
Feb 9
Waning Crescent
Feb 10
New
Feb 17
First Quarter
Feb 25
Full
Mar 4
Last Quarter

Hourly Weather History & Observations

Time (EST) Temp. Windchill Dew Point Humidity Pressure Visibility Wind Dir Wind Speed Gust Speed Precip Events Conditions
12:15 AM 47.8 °F - 30.7 °F 52% 30.06 in 10.0 mi WNW 3.5 mph - N/A   Clear
12:35 AM 46.8 °F - 30.4 °F 53% 30.07 in 10.0 mi NNW 4.6 mph - N/A   Clear
12:55 AM 45.9 °F - 30.0 °F 54% 30.08 in 10.0 mi Calm Calm - N/A   Clear
1:15 AM 45.1 °F 42.0 °F 30.0 °F 55% 30.08 in 10.0 mi WNW 5.8 mph - N/A   Clear
1:35 AM 44.6 °F 42.2 °F 29.8 °F 56% 30.08 in 10.0 mi WNW 4.6 mph - N/A   Clear
1:55 AM 43.9 °F 40.5 °F 29.5 °F 57% 30.09 in 10.0 mi WNW 5.8 mph - N/A   Clear
2:15 AM 43.3 °F - 29.1 °F 57% 30.09 in 10.0 mi Calm Calm - N/A   Clear
2:35 AM 42.3 °F - 29.3 °F 60% 30.09 in 10.0 mi Calm Calm - N/A   Clear
2:55 AM 42.1 °F - 29.3 °F 61% 30.09 in 10.0 mi Calm Calm - N/A   Clear
3:15 AM 41.9 °F 40.0 °F 28.8 °F 60% 30.08 in 10.0 mi West 3.5 mph - N/A   Clear
3:35 AM 41.7 °F 39.8 °F 28.6 °F 60% 30.09 in 10.0 mi WNW 3.5 mph - N/A   Clear
3:55 AM 41.2 °F 39.2 °F 28.0 °F 60% 30.11 in 10.0 mi WNW 3.5 mph - N/A   Clear
4:15 AM 40.5 °F - 28.4 °F 62% 30.11 in 10.0 mi Calm Calm - N/A   Clear
4:35 AM 39.4 °F - 29.1 °F 67% 30.12 in 10.0 mi Calm Calm - N/A   Clear
4:55 AM 39.4 °F 37.2 °F 29.1 °F 67% 30.13 in 10.0 mi West 3.5 mph - N/A   Clear
5:15 AM 39.6 °F 37.4 °F 28.6 °F 65% 30.13 in 10.0 mi WNW 3.5 mph - N/A   Clear
5:35 AM 39.0 °F 36.8 °F 28.4 °F 66% 30.15 in 10.0 mi WNW 3.5 mph - N/A   Clear
5:55 AM 39.0 °F - 27.9 °F 64% 30.17 in 10.0 mi Calm Calm - N/A   Clear
6:15 AM 38.5 °F - 27.7 °F 65% 30.17 in 10.0 mi Calm Calm - N/A   Clear
6:35 AM 37.6 °F - 28.0 °F 68% 30.18 in 10.0 mi Calm Calm - N/A   Clear
6:55 AM 35.1 °F - 29.1 °F 79% 30.20 in 10.0 mi Calm Calm - N/A   Clear
7:15 AM 35.1 °F - 29.1 °F 79% 30.21 in 10.0 mi Calm Calm - N/A   Clear
7:35 AM 34.7 °F - 29.3 °F 81% 30.21 in 10.0 mi Calm Calm - N/A   Clear
7:55 AM 36.9 °F - 30.2 °F 77% 30.23 in 10.0 mi Calm Calm - N/A   Clear
8:15 AM 39.0 °F - 29.5 °F 69% 30.24 in 10.0 mi Calm Calm - N/A   Clear
8:35 AM 41.0 °F - 29.7 °F 64% 30.25 in 10.0 mi Calm Calm - N/A   Clear
8:55 AM 42.1 °F 38.4 °F 28.2 °F 58% 30.25 in 10.0 mi NNW 5.8 mph - N/A   Clear
9:15 AM 43.9 °F 42.3 °F 27.7 °F 53% 30.26 in 10.0 mi NNW 3.5 mph - N/A   Clear
9:35 AM 45.0 °F 42.6 °F 26.2 °F 48% 30.26 in 10.0 mi North 4.6 mph - N/A   Clear
9:55 AM 46.6 °F - 23.0 °F 39% 30.27 in 10.0 mi North 4.6 mph - N/A   Clear
10:15 AM 47.7 °F - 21.2 °F 35% 30.27 in 10.0 mi North 5.8 mph - N/A   Clear
10:35 AM 48.2 °F - 19.2 °F 32% 30.27 in 10.0 mi North 9.2 mph - N/A   Clear
10:55 AM 49.3 °F - 18.3 °F 29% 30.28 in 10.0 mi NNW 4.6 mph - N/A   Clear
11:15 AM 49.3 °F - 17.4 °F 28% 30.27 in 10.0 mi North 9.2 mph - N/A   Clear
11:35 AM 49.8 °F - 19.4 °F 30% 30.26 in 10.0 mi NNW 4.6 mph - N/A   Clear
11:55 AM 50.7 °F - 19.9 °F 30% 30.26 in 10.0 mi North 5.8 mph - N/A   Clear
12:15 PM 51.1 °F - 19.8 °F 29% 30.26 in 10.0 mi WNW 5.8 mph - N/A   Clear
12:35 PM 51.8 °F - 19.6 °F 28% 30.25 in 10.0 mi Calm Calm - N/A   Clear
12:55 PM 52.7 °F - 18.3 °F 26% 30.25 in 10.0 mi WNW 4.6 mph - N/A   Clear
1:15 PM 54.3 °F - 20.5 °F 27% 30.25 in 10.0 mi Calm Calm - N/A   Clear
1:35 PM 53.8 °F - 19.6 °F 26% 30.24 in 10.0 mi Calm Calm - N/A   Clear
1:55 PM 54.7 °F - 19.2 °F 25% 30.24 in 10.0 mi NNW 4.6 mph - N/A   Clear
2:15 PM 55.6 °F - 19.9 °F 25% 30.24 in 10.0 mi NNW 3.5 mph - N/A   Clear
2:35 PM 55.2 °F - 18.7 °F 24% 30.24 in 10.0 mi Calm Calm - N/A   Clear
2:55 PM 55.9 °F - 19.8 °F 24% 30.24 in 10.0 mi NW 3.5 mph - N/A   Clear
3:15 PM 55.8 °F - 19.4 °F 24% 30.23 in 10.0 mi North 4.6 mph - N/A   Clear
3:35 PM 56.3 °F - 20.3 °F 25% 30.24 in 10.0 mi NW 4.6 mph - N/A   Clear
3:55 PM 56.5 °F - 19.9 °F 24% 30.24 in 10.0 mi NW 4.6 mph - N/A   Clear
4:15 PM 56.3 °F - 20.3 °F 25% 30.24 in 10.0 mi NW 3.5 mph - N/A   Clear
4:35 PM 56.3 °F - 20.1 °F 24% 30.24 in 10.0 mi Calm Calm - N/A   Clear
4:55 PM 55.8 °F - 20.3 °F 25% 30.25 in 10.0 mi WNW 3.5 mph - N/A   Clear
5:15 PM 54.3 °F - 21.4 °F 28% 30.25 in 10.0 mi Calm Calm - N/A   Clear
5:35 PM 52.5 °F - 22.3 °F 31% 30.25 in 10.0 mi Calm Calm - N/A   Clear
5:55 PM 51.3 °F - 21.7 °F 31% 30.25 in 10.0 mi Calm Calm - N/A   Clear
6:15 PM 48.4 °F - 26.1 °F 42% 30.27 in 10.0 mi Calm Calm - N/A   Clear
6:35 PM 46.4 °F - 28.9 °F 51% 30.28 in 10.0 mi Calm Calm - N/A   Clear
6:55 PM 44.6 °F - 31.1 °F 59% 30.28 in 10.0 mi Calm Calm - N/A   Clear
7:15 PM 42.1 °F - 30.4 °F 63% 30.29 in 10.0 mi Calm Calm - N/A   Clear
7:35 PM 41.4 °F - 30.6 °F 65% 30.30 in 10.0 mi Calm Calm - N/A   Clear
7:55 PM 39.6 °F - 30.4 °F 70% 30.31 in 10.0 mi Calm Calm - N/A   Clear
8:35 PM 38.7 °F - 31.8 °F 76% 30.32 in 10.0 mi Calm Calm - N/A   Clear
8:55 PM 38.3 °F - 31.1 °F 75% 30.33 in 10.0 mi Calm Calm - N/A   Clear
9:15 PM 38.3 °F - 33.3 °F 82% 30.34 in 10.0 mi Calm Calm - N/A   Clear
9:35 PM 37.4 °F - 32.9 °F 84% 30.35 in 10.0 mi Calm Calm - N/A   Clear
9:55 PM 37.2 °F - 32.2 °F 82% 30.35 in 10.0 mi Calm Calm - N/A   Clear
10:15 PM 36.0 °F - 31.5 °F 84% 30.36 in 10.0 mi Calm Calm - N/A   Clear
10:35 PM 34.2 °F - 31.1 °F 89% 30.36 in 10.0 mi Calm Calm - N/A   Clear
10:55 PM 34.5 °F - 31.5 °F 89% 30.36 in 10.0 mi Calm Calm - N/A   Clear
11:15 PM 33.8 °F - 31.1 °F 90% 30.36 in 10.0 mi Calm Calm - N/A   Clear
11:35 PM 32.9 °F - 30.6 °F 91% 30.36 in 10.0 mi Calm Calm - N/A   Clear
11:55 PM 32.9 °F - 31.1 °F 93% 30.36 in 10.0 mi Calm Calm - N/A   Clear